Location: Cheb
(50.0670°N, 12.3670°E)
Time: 00:14:06
(UTC+02:00)

ISS - Pass Details

Date: 02 April 2019
Orbit: 408 x 410 km, 51.6° (Epoch: 22 April)

Event Time Altitude Azimuth Distance (km) Brightness Sun altitude
Rises 22:32:13 0° 285° (WNW) 2,338 1.0 -24.8°
Reaches altitude 10° 22:34:35 10° 270° (W) 1,473 -0.5 -25.0°
Enters shadow 22:35:31 15° 257° (WSW) 1,195 -1.1 -25.1°
